FW7196 Weather Reports


time (UTC)temp
C
wind
direction
speed
KPH
gust
KPH
rain 1hr
cm
rain 24hr
cm
rain mn
cm
humidity
%
barometer
mb
20260831044555 15 0 0.0 0.0 0.03 0.03 0.03 95 1019.0
20260831043043 16 0 0.0 0.0 0.03 0.03 0.03 95 1018.9
20260831041559 16 0 0.0 0.0 0.03 0.03 0.03 95 1018.9
20260831040043 16 0 0.0 0.0 0.00 0.00 0.00 94 1018.9
20260831034549 16 0 0.0 0.0 0.00 0.00 0.00 94 1018.6
20260831033048 16 0 0.0 0.0 0.00 0.00 0.00 94 1018.6
20260831031543 16 0 0.0 0.0 0.00 0.00 0.00 94 1018.6
20260831030053 16 0 0.0 0.0 0.00 0.00 0.00 94 1018.6
20260831024544 16 0 0.0 0.0 0.00 0.00 0.00 93 1018.7
20260831023044 16 0 0.0 0.0 0.00 0.00 0.00 93 1018.5
20260831021547 16 0 0.0 0.0 0.00 0.00 0.00 93 1018.4
20260831020051 16 0 0.0 0.0 0.00 0.00 0.00 92 1018.5
20260831014549 17 0 0.0 0.0 0.00 0.00 0.00 92 1018.2
20260831013054 17 0 0.0 0.0 0.00 0.00 0.00 91 1018.0
20260831011548 17 0 0.0 0.0 0.00 0.00 0.00 91 1017.9
20260831010107 17 0 0.0 1.6 0.00 0.00 0.00 90 1017.7
20260831004544 18 0 0.0 0.0 0.00 0.00 0.00 88 1017.7
20260831003052 18 0 0.0 1.6 0.00 0.00 0.00 86 1017.5
20260831001547 19 0 0.0 3.2 0.00 0.00 0.00 83 1017.4
20260831000045 20 79 0.0 4.8 0.00 0.00 0.00 79 1017.2
20260830234546 20 0 0.0 9.7 0.00 0.00 0.00 76 1017.0
20260830233050 20 149 0.0 6.4 0.00 0.00 0.00 75 1016.7
20260830231546 20 148 1.6 12.9 0.00 0.00 0.00 74 1016.5
20260830230045 20 0 0.0 9.7 0.00 0.00 0.00 74 1016.6
20260830224548 20 70 0.0 6.4 0.00 0.00 0.00 76 1016.6
20260830223045 20 0 0.0 3.2 0.00 0.00 0.00 81 1016.6
20260830221545 20 0 0.0 0.0 0.00 0.00 0.00 86 1016.3
20260830220047 20 0 0.0 0.0 0.00 0.00 0.00 85 1016.4
20260830214544 21 0 0.0 0.0 0.00 0.00 0.00 84 1016.4
20260830213048 21 0 0.0 0.0 0.00 0.00 0.00 84 1016.5
20260830211544 21 0 0.0 0.0 0.00 0.00 0.00 83 1016.5
20260830210044 21 0 0.0 0.0 0.00 0.00 0.00 81 1016.6
20260830204544 21 0 0.0 0.0 0.00 0.00 0.00 80 1016.8
20260830203048 22 0 0.0 0.0 0.00 0.00 0.00 79 1016.9
20260830201549 21 0 0.0 0.0 0.00 0.00 0.00 74 1016.9
20260830200044 21 0 0.0 1.6 0.00 0.00 0.00 74 1017.1
20260830194559 21 0 0.0 3.2 0.00 0.00 0.00 75 1017.2
20260830193049 21 26 0.0 1.6 0.00 0.00 0.00 74 1017.3
20260830191545 21 0 0.0 3.2 0.00 0.00 0.00 77 1017.5
20260830190041 21 191 0.0 3.2 0.00 0.00 0.00 79 1017.6
20260830184547 20 187 0.0 1.6 0.00 0.00 0.00 79 1017.8
20260830183044 20 0 0.0 1.6 0.00 0.00 0.00 83 1018.0
20260830181545 20 0 0.0 0.0 0.00 0.00 0.00 85 1018.1
20260830180050 19 0 0.0 3.2 0.00 0.00 0.00 85 1018.5
20260830174603 18 0 0.0 6.4 0.00 0.00 0.00 86 1018.6
20260830173049 18 0 0.0 0.0 0.00 0.00 0.00 91 1018.9
20260830171547 18 0 0.0 0.0 0.00 0.00 0.00 92 1019.1
20260830170046 17 0 0.0 0.0 0.00 0.00 0.00 91 1019.4
20260830164542 17 0 0.0 0.0 0.00 0.00 0.00 92 1019.4
20260830163054 17 0 0.0 0.0 0.00 0.00 0.00 91 1019.5
20260830161558 17 0 0.0 3.2 0.00 0.00 0.00 91 1019.7
20260830160044 17 0 0.0 3.2 0.00 0.00 0.00 89 1020.2
20260830154551 17 0 0.0 3.2 0.00 0.00 0.00 86 1020.0
20260830153042 18 0 0.0 0.0 0.00 0.00 0.00 82 1019.4
20260830151555 18 0 0.0 1.6 0.00 0.00 0.00 80 1020.1
20260830150044 18 0 1.6 4.8 0.00 0.00 0.00 77 1020.1
20260830144543 18 0 0.0 3.2 0.00 0.00 0.00 78 1019.9
20260830143048 19 142 0.0 6.4 0.00 0.00 0.00 79 1020.0
20260830141544 19 0 0.0 6.4 0.00 0.00 0.00 78 1019.8
20260830140111 18 184 0.0 4.8 0.00 0.00 0.00 77 1019.9
20260830134548 18 126 1.6 6.4 0.00 0.00 0.00 78 1019.7
20260830133049 17 0 0.0 4.8 0.00 0.00 0.00 80 1019.8
20260830132441 17 292 0.0 0.0 0.00 0.00 0.00 79 1019.9
20260830131944 17 275 0.0 0.0 0.00 0.00 0.00 79 1019.8
20260830131547 17 0 0.0 3.2 0.00 0.00 0.00 80 1019.8
20260830131447 17 259 0.0 1.6 0.00 0.00 0.00 79 1019.8
20260830130939 17 168 0.0 1.6 0.00 0.00 0.00 80 1019.8
20260830130438 17 76 0.0 1.6 0.00 0.00 0.00 80 1019.8
20260830130054 16 0 0.0 4.8 0.00 0.00 0.00 80 1019.8
20260830124547 16 105 0.0 8.0 0.00 0.00 0.00 83 1019.9
20260830123054 15 0 0.0 0.0 0.00 0.00 0.00 86 1019.8
20260830121542 15 0 0.0 0.0 0.00 0.00 0.00 87 1020.0
20260830120046 15 0 0.0 0.0 0.00 0.00 0.00 87 1020.1
20260830114546 14 0 0.0 0.0 0.00 0.00 0.00 90 1020.1
20260830113053 13 0 0.0 0.0 0.00 0.00 0.00 90 1020.1
20260830111545 13 0 0.0 0.0 0.00 0.00 0.00 90 1020.3
20260830110048 13 0 0.0 0.0 0.00 0.00 0.00 89 1020.2
20260830104549 13 0 0.0 0.0 0.00 0.00 0.00 89 1020.2
20260830103047 13 0 0.0 0.0 0.00 0.00 0.00 90 1020.2
20260830101556 13 0 0.0 0.0 0.00 0.00 0.00 89 1020.2
20260830100044 13 0 0.0 0.0 0.00 0.00 0.00 89 1020.2
20260830094546 13 0 0.0 0.0 0.00 0.00 0.00 90 1020.3
20260830093043 13 0 0.0 0.0 0.00 0.00 0.00 90 1020.3
20260830091544 13 0 0.0 0.0 0.00 0.00 0.00 90 1020.4
20260830090045 13 0 0.0 0.0 0.00 0.00 0.00 90 1020.3
20260830084546 12 0 0.0 0.0 0.00 0.00 0.00 90 1020.5
20260830083048 12 0 0.0 0.0 0.00 0.00 0.00 91 1020.6
20260830081545 12 0 0.0 0.0 0.00 0.00 0.00 91 1020.5
20260830080048 12 0 0.0 0.0 0.00 0.00 0.00 91 1020.6
20260830074544 12 0 0.0 0.0 0.00 0.00 0.00 90 1020.8
20260830073050 12 0 0.0 0.0 0.00 0.00 0.00 91 1020.7
20260830071558 12 0 0.0 0.0 0.00 0.00 0.00 92 1020.7
20260830070044 12 0 0.0 0.0 0.00 0.00 0.00 92 1020.7
20260830064550 12 0 0.0 0.0 0.00 0.00 0.00 93 1020.7
20260830063052 11 0 0.0 0.0 0.00 0.00 0.00 92 1020.7
20260830061547 12 0 0.0 0.0 0.00 0.00 0.00 92 1020.9
20260830060045 12 0 0.0 0.0 0.00 0.00 0.00 92 1021.0
20260830054549 12 0 0.0 0.0 0.00 0.00 0.00 92 1021.1
20260830053046 12 0 0.0 0.0 0.00 0.00 0.00 93 1021.1
20260830051548 11 0 0.0 0.0 0.00 0.00 0.00 94 1021.2
20260830050109 11 0 0.0 0.0 0.00 0.00 0.00 94 1021.2